Location: Bay Ridge
(40.6340°N, 74.0146°W)
Time: 12:15:54
(UTC+00:00)

STARLINK-21 - Pass Details

Date: 15 November 2019
Orbit: 529 x 530 km, 53.0° (Epoch: 11 December)

Event Time Altitude Azimuth Distance (km) Brightness Sun altitude
Exits shadow 10:28:39 -1° 217° (SW) 2,724 6.9 -14.1°
Rises 10:28:50 0° 217° (SW) 2,649 6.9 -14.1°
Reaches altitude 10° 10:31:04 10° 212° (SSW) 1,763 6.0 -13.7°
Maximum altitude 10:34:58 52° 136° (SE) 661 4.4 -12.9°
Drops below altitude 10° 10:38:52 10° 60° (ENE) 1,772 6.9 -12.2°
Sets 10:41:07 0° 55° (NE) 2,663 7.8 -11.8°
